Location: ??
(34.9170°N, 135.5016°E)
Time: 11:42:18
(UTC+00:00)

Meteor 1-31 Rocket - Pass Details

Date: 29 October 2020
Orbit: 521 x 546 km, 97.6° (Epoch: 26 November)

Event Time Altitude Azimuth Distance (km) Brightness Sun altitude
Rises 20:03:20 0° 5° (N) 2,718 6.4 -15.6°
Reaches altitude 10° 20:05:31 10° 359° (N) 1,820 5.4 -15.2°
Maximum altitude 20:09:18 47° 285° (WNW) 724 3.0 -14.4°
Drops below altitude 10° 20:13:03 10° 211° (SSW) 1,800 5.2 -13.6°
Sets 20:15:12 0° 206° (SSW) 2,684 6.2 -13.2°
